This demonstration page uses our WeatherBlox Daily Observations layout. Learn more.

Left ArrowRight Arrow

38.20091, -84.87328

Hourly Observations for April 13, 2020

Temp ( °F °C ) Dew Point ( °F °C ) Humidity (%) Winds ( mph kmh ) Pressure ( in mb ) Visibility ( mi km ) Precip ( " mm )
12:53 am 00:53 Cloudy 63 17.2 58 14.4 84 84 S 9 15 29.41 996 10 16 0.00 0.00
1:53 am 01:53 Cloudy with Light Rain 64 17.8 58 14.4 81 81 S 9 15 29.38 995 10 16 0.00 0.00
2:53 am 02:53 Cloudy 63 17.2 58 14.4 84 84 S 13 20 29.35 994 10 16 0.00 0.00
3:35 am 03:35 Cloudy with Nearby Thunderstorms 63 17.2 58 14.4 84 84 SW 5 7 29.37 995 10 16 0.00 0.00
3:43 am 03:43 Cloudy with Thunderstorms 63 17.2 58 14.4 84 84 WNW 8 13 29.40 996 9 14 0.00 0.00
3:51 am 03:51 Cloudy with Strong Thunderstorms 63 17 57 14 83 83 WNW 7 11 29.39 995 4 6 0.05 1.27
3:53 am 03:53 Cloudy with Strong Thunderstorms 62 16.7 58 14.4 86 86 WNW 6 9 29.38 995 3 4 0.08 2.03
4:03 am 04:03 Cloudy with Nearby Thunderstorms 61 16.1 59 15 93 93 NNW 7 11 29.38 995 3 4 0.04 1.02
4:12 am 04:12 Cloudy with Nearby Thunderstorms 61 16.1 58 14.4 90 90 WSW 5 7 29.38 995 2 3 0.11 2.79
4:16 am 04:16 Cloudy with Heavy Rain 60 15.6 58 14.4 93 93 VRB 5 7 29.37 995 2 2 0.16 4.06
4:26 am 04:26 Cloudy with Light Rain 60 15.6 57 13.9 90 90 VRB 5 7 29.35 994 3 5 0.19 4.83
4:38 am 04:38 Cloudy with Light Rain 60 15.6 57 13.9 90 90 Calm 29.34 994 10 16 0.19 4.83
4:48 am 04:48 Cloudy with Light Rain 61 16 57 14 88 88 ENE 3 6 29.33 993 8 13 0.20 5.08
4:53 am 04:53 Cloudy with Light Rain 60 15.6 57 13.9 90 90 Calm 29.33 993 7 11 0.20 5.08
5:17 am 05:17 Cloudy with Heavy Rain 59 15 57 13.9 93 93 NNW 3 6 29.33 993 3 4 0.08 2.03
5:28 am 05:28 Cloudy with Light Rain 59 15 57 13.9 93 93 WNW 5 7 29.35 994 5 8 0.09 2.29
5:36 am 05:36 Cloudy with Rain 59 15 57 13.9 93 93 WSW 6 9 29.37 994 4 6 0.12 3.05
5:53 am 05:53 Cloudy with Rain 59 15 56 13.3 90 90 WSW 5 7 29.37 995 3 5 0.18 4.57
6:07 am 06:07 Cloudy with Rain 59 15 56 13.3 90 90 W 6 9 29.39 995 3 5 0.04 1.02
6:14 am 06:14 Cloudy with Light Rain 59 15 56 13.3 90 90 W 14 22 29.39 995 5 8 0.05 1.27
6:26 am 06:26 Cloudy with Light Rain 59 15 56 13.3 90 90 WNW 15 24 29.41 996 9 14 0.05 1.27
6:53 am 06:53 Cloudy with Rain 58 14.4 54 12.2 87 87 W 10 17 29.44 997 6 10 0.08 2.03
7:25 am 07:25 Cloudy with Light Rain 57 13.9 53 11.7 87 87 WNW 14 22 29.49 999 10 16 0.05 1.27
7:53 am 07:53 Cloudy 57 13.9 53 11.7 87 87 W 9 15 29.52 1000 10 16 0.05 1.27
8:01 am 08:01 Cloudy 57 13.9 53 11.7 87 87 W 13 20 29.54 1000 9 14 0.00 0.00
8:23 am 08:23 Cloudy 57 13.9 53 11.7 87 87 W 15 24 29.56 1001 7 11 0.00 0.00
8:51 am 08:51 Cloudy 54 12 48 9 82 82 W 16 26 29.62 1003 8 13 0.00 0.00
8:53 am 08:53 Cloudy 52 11.1 49 9.4 89 89 W 16 26 29.62 1003 7 11 0.00 0.00
9:53 am 09:53 Cloudy 46 7.8 41 5 83 83 W 16 26 29.72 1007 10 16 0.00 0.00
10:11 am 10:11 Cloudy 46 7.8 41 5 83 83 W 18 30 29.77 1008 10 16 0.00 0.00
10:53 am 10:53 Cloudy 44 6.7 38 3.3 79 79 W 18 30 29.82 1010 10 16 0.00 0.00
11:01 am 11:01 Cloudy 44 6.7 38 3.3 79 79 W 16 26 29.85 1011 10 16 0.00 0.00
11:25 am 11:25 Cloudy 44 6.7 38 3.3 79 79 W 14 22 29.88 1012 10 16 0.00 0.00
11:53 am 11:53 Cloudy 44 6.7 37 2.8 76 76 W 14 22 29.88 1012 10 16 0.00 0.00
12:20 pm 12:20 Cloudy 43 6.1 36 2.2 76 76 WNW 17 28 29.93 1014 10 16 0.00 0.00
12:27 pm 12:27 Cloudy 44 6.7 35 1.7 71 71 WNW 13 20 29.94 1014 10 16 0.00 0.00
12:53 pm 12:53 Cloudy 45 7.2 35 1.7 68 68 WNW 15 24 29.93 1013 10 16 0.00 0.00
1:53 pm 13:53 Cloudy 45 7.2 34 1.1 66 66 W 15 24 29.96 1015 10 16 0.00 0.00
2:11 pm 14:11 Cloudy 46 7.8 34 1.1 63 63 WNW 15 24 29.99 1015 10 16 0.00 0.00
2:35 pm 14:35 Cloudy 45 7.2 33 0.6 63 63 WNW 14 22 30.01 1016 10 16 0.00 0.00
2:53 pm 14:53 Cloudy 46 7.8 33 0.6 61 61 W 14 22 30.01 1016 10 16 0.00 0.00
3:13 pm 15:13 Cloudy 46 7.8 33 0.6 61 61 WNW 10 17 30.04 1017 10 16 0.00 0.00
3:53 pm 15:53 Cloudy 46 7.8 32 0 58 58 WNW 9 15 30.03 1017 10 16 0.00 0.00
4:53 pm 16:53 Cloudy 48 8.9 33 0.6 56 56 W 14 22 30.05 1018 10 16 0.00 0.00
5:53 pm 17:53 Mostly Cloudy 48 8.9 31 -0.6 52 52 W 12 19 30.07 1018 10 16 0.00 0.00
6:53 pm 18:53 Partly Cloudy 47 8.3 30 -1.1 52 52 VRB 5 7 30.11 1020 10 16 0.00 0.00
7:53 pm 19:53 Mostly Cloudy 45 7.2 31 -0.6 58 58 Calm 30.12 1020 10 16 0.00 0.00
8:53 pm 20:53 Mostly Clear 43 6.1 31 -0.6 63 63 Calm 30.14 1021 10 16 0.00 0.00
9:53 pm 21:53 Clear 42 5.6 34 1.1 73 73 Calm 30.17 1022 10 16 0.00 0.00
10:53 pm 22:53 Clear 38 3.3 34 1.1 86 86 Calm 30.19 1022 10 16 0.00 0.00
11:53 pm 23:53 Clear 40 4.4 35 1.7 83 83 Calm 30.18 1022 10 16 0.00 0.00

Powered by AerisWeather